TimeCST,TemperatureF,Dew PointF,Humidity,Sea Level PressureIn,VisibilityMPH,Wind Direction,Wind SpeedMPH,Gust SpeedMPH,PrecipitationIn,Events,Conditions,WindDirDegrees,DateUTC
12:04 AM,73.4,66.2,78,30.10,10.0,SSW,8.1,-,N/A,,Overcast,200,2011-11-21 06:04:00
12:53 AM,72.0,68.0,87,30.07,10.0,South,6.9,-,N/A,,Overcast,190,2011-11-21 06:53:00
1:53 AM,63.0,61.0,93,30.07,7.0,West,4.6,-,0.00,,Overcast,270,2011-11-21 07:53:00
2:49 AM,60.8,57.2,88,30.09,6.0,WNW,5.8,-,0.00,,Overcast,290,2011-11-21 08:49:00
2:53 AM,60.1,57.0,90,30.08,6.0,WNW,5.8,-,0.00,Rain,Light Rain,300,2011-11-21 08:53:00
3:53 AM,57.9,54.0,87,30.09,7.0,NW,6.9,-,0.00,,Overcast,320,2011-11-21 09:53:00
4:53 AM,57.9,54.0,87,30.10,7.0,NW,3.5,-,N/A,,Overcast,320,2011-11-21 10:53:00
5:53 AM,57.0,54.0,89,30.11,6.0,NNW,5.8,-,N/A,,Overcast,340,2011-11-21 11:53:00
6:53 AM,55.9,54.0,93,30.13,4.0,NNW,4.6,-,0.00,Rain,Light Rain,340,2011-11-21 12:53:00
7:17 AM,55.4,53.6,94,30.14,1.8,NW,6.9,-,0.04,Rain,Light Rain,320,2011-11-21 13:17:00
7:31 AM,55.4,53.6,94,30.15,3.0,North,5.8,-,0.05,Rain,Light Rain,360,2011-11-21 13:31:00
7:53 AM,55.9,54.0,93,30.14,3.0,North,4.6,-,0.05,,Overcast,10,2011-11-21 13:53:00
8:48 AM,55.4,53.6,94,30.16,4.0,North,5.8,-,0.01,Rain,Light Rain,10,2011-11-21 14:48:00
8:53 AM,55.9,54.0,93,30.15,4.0,NNE,4.6,-,0.01,,Overcast,20,2011-11-21 14:53:00
9:53 AM,57.0,55.0,93,30.15,4.0,North,4.6,-,N/A,,Overcast,10,2011-11-21 15:53:00
10:53 AM,57.9,55.9,93,30.13,4.0,North,4.6,-,N/A,,Overcast,10,2011-11-21 16:53:00
11:04 AM,57.2,55.4,94,30.14,2.0,NNE,4.6,-,0.01,Rain,Rain,30,2011-11-21 17:04:00
11:18 AM,57.2,55.4,94,30.13,3.0,NNE,4.6,-,0.02,Rain,Light Rain,20,2011-11-21 17:18:00
11:37 AM,57.2,55.4,94,30.11,4.0,NE,4.6,-,0.03,Rain,Light Rain,40,2011-11-21 17:37:00
11:53 AM,59.0,57.0,93,30.09,4.0,NE,5.8,-,0.03,,Overcast,50,2011-11-21 17:53:00
12:10 PM,59.0,59.0,100,30.09,3.0,NE,4.6,-,N/A,,Overcast,40,2011-11-21 18:10:00
12:53 PM,62.1,59.0,90,30.04,3.0,ENE,5.8,-,N/A,,Overcast,60,2011-11-21 18:53:00
1:38 PM,64.4,60.8,88,30.02,4.0,North,5.8,-,N/A,,Overcast,10,2011-11-21 19:38:00
1:53 PM,66.2,60.8,83,30.02,5.0,NNE,4.6,-,N/A,,Haze,20,2011-11-21 19:53:00
2:33 PM,68.0,62.6,83,29.98,7.0,ENE,4.6,-,N/A,,Mostly Cloudy,60,2011-11-21 20:33:00
2:53 PM,70.0,64.0,81,29.96,7.0,East,6.9,-,N/A,,Partly Cloudy,90,2011-11-21 20:53:00
3:53 PM,71.6,64.4,78,29.94,7.0,ENE,3.5,-,N/A,,Partly Cloudy,70,2011-11-21 21:53:00
4:53 PM,69.8,64.4,83,29.91,5.0,East,5.8,-,N/A,,Scattered Clouds,80,2011-11-21 22:53:00
5:53 PM,72.0,66.0,81,29.84,10.0,SSE,11.5,-,N/A,,Clear,150,2011-11-21 23:53:00
6:53 PM,73.9,66.0,76,29.85,10.0,SSE,13.8,-,N/A,,Clear,160,2011-11-22 00:53:00
7:46 PM,73.4,66.2,78,29.90,10.0,South,11.5,-,N/A,,Overcast,190,2011-11-22 01:46:00
7:53 PM,73.9,66.9,79,29.89,10.0,South,13.8,21.9,N/A,,Overcast,180,2011-11-22 01:53:00
8:34 PM,73.4,66.2,78,29.93,10.0,South,18.4,23.0,N/A,,Overcast,190,2011-11-22 02:34:00
8:53 PM,73.9,66.0,76,29.92,10.0,South,20.7,27.6,N/A,,Overcast,180,2011-11-22 02:53:00
9:53 PM,73.0,66.0,79,29.90,10.0,South,16.1,27.6,N/A,,Mostly Cloudy,170,2011-11-22 03:53:00
10:53 PM,73.0,66.0,79,29.91,10.0,South,18.4,24.2,N/A,,Overcast,190,2011-11-22 04:53:00
11:53 PM,72.0,66.9,84,29.91,10.0,SSW,12.7,-,N/A,,Overcast,210,2011-11-22 05:53:00